When you browse on this site, cookies collect data to enhance your experience and personalize the content and advertising you see.
Visit our Privacy Policy to learn more. By continuing to use the site, you agree to this use of cookies and data.
  • In Lithuania
  • List of Countries
  • For 7 days
  • Water Temperature
  • Satellite Maps
  • Weather Map
  • Weather Widgets
  • user-avatar
    Login

    Hourly Weather Irgakly

    Today, 11 December, Tuesday

    Time Temperature Precipitation Wind Pressure Humidity
    00:00 +5°C° 0 mm 3 mps 751 mmHg 91%
    01:00 +5°C° 0 mm 3 mps 751 mmHg 92%
    02:00 +5°C° 0 mm 3 mps 751 mmHg 93%
    03:00 +5°C° 0 mm 3 mps 751 mmHg 91%
    04:00 +6°C° 0.1 mm 2 mps 751 mmHg 92%
    05:00 +6°C° 0.1 mm 2 mps 750 mmHg 92%
    06:00 +6°C° 0.1 mm 2 mps 750 mmHg 93%
    07:00 +6°C° 0 mm 2 mps 750 mmHg 93%
    08:00 +6°C° 0 mm 2 mps 750 mmHg 93%
    09:00 +6°C° 0 mm 2 mps 749 mmHg 91%
    10:00 +7°C° 0 mm 2 mps 749 mmHg 90%
    11:00 +7°C° 0 mm 3 mps 748 mmHg 89%
    12:00 +8°C° 0 mm 3 mps 747 mmHg 88%
    13:00 +8°C° 0 mm 3 mps 747 mmHg 86%
    14:00 +9°C° 0 mm 3 mps 746 mmHg 85%
    15:00 +8°C° 0 mm 4 mps 745 mmHg 83%
    16:00 +9°C° 0 mm 3 mps 745 mmHg 86%
    17:00 +8°C° 0 mm 3 mps 745 mmHg 88%
    18:00 +8°C° 0 mm 2 mps 745 mmHg 90%
    19:00 +8°C° 0 mm 2 mps 745 mmHg 91%
    20:00 +8°C° 0 mm 2 mps 746 mmHg 92%
    21:00 +7°C° 0 mm 2 mps 746 mmHg 92%
    22:00 +7°C° 0 mm 2 mps 747 mmHg 93%
    23:00 +7°C° 0 mm 2 mps 747 mmHg 94%

    Tomorrow, 12 December, Wednesday

    Time Temperature Precipitation Wind Pressure Humidity
    00:00 +7°C° 0 mm 1 mps 748 mmHg 95%
    01:00 +7°C° 0.1 mm 1 mps 748 mmHg 95%
    02:00 +7°C° 0.1 mm 1 mps 748 mmHg 95%
    03:00 +7°C° 0.1 mm 1 mps 749 mmHg 94%
    04:00 +7°C° 0 mm 1 mps 749 mmHg 94%
    05:00 +7°C° 0 mm 1 mps 749 mmHg 94%
    06:00 +7°C° 0 mm 1 mps 749 mmHg 93%
    07:00 +6°C° 0 mm 2 mps 749 mmHg 93%
    08:00 +6°C° 0 mm 2 mps 749 mmHg 93%
    09:00 +7°C° 0 mm 2 mps 749 mmHg 93%
    10:00 +7°C° 0 mm 3 mps 749 mmHg 89%
    11:00 +8°C° 0 mm 3 mps 748 mmHg 86%
    12:00 +8°C° 0 mm 3 mps 748 mmHg 83%
    13:00 +8°C° 0 mm 3 mps 748 mmHg 83%
    14:00 +8°C° 0 mm 3 mps 748 mmHg 84%
    15:00 +8°C° 0 mm 3 mps 748 mmHg 84%
    16:00 +8°C° 0.1 mm 3 mps 748 mmHg 86%
    17:00 +8°C° 0.1 mm 3 mps 748 mmHg 88%
    18:00 +7°C° 0.1 mm 3 mps 749 mmHg 91%
    19:00 +7°C° 0.2 mm 3 mps 749 mmHg 91%
    20:00 +7°C° 0.2 mm 2 mps 750 mmHg 92%
    21:00 +7°C° 0.2 mm 2 mps 750 mmHg 92%
    22:00 +7°C° 0.1 mm 2 mps 750 mmHg 92%
    23:00 +7°C° 0.1 mm 2 mps 750 mmHg 92%

    Day after tomorrow, 13 December, Thursday

    Time Temperature Precipitation Wind Pressure Humidity
    00:00 +5°C° 0.1 mm 3 mps 751 mmHg 92%
    01:00 +5°C° 1.1 mm 3 mps 751 mmHg 92%
    02:00 +5°C° 1.1 mm 4 mps 751 mmHg 92%
    03:00 +5°C° 1.1 mm 4 mps 751 mmHg 91%
    04:00 +5°C° 0.5 mm 4 mps 752 mmHg 90%
    05:00 +3°C° 0.5 mm 5 mps 752 mmHg 88%
    06:00 +3°C° 0.5 mm 5 mps 752 mmHg 86%
    07:00 +3°C° 0.3 mm 5 mps 753 mmHg 84%
    08:00 +3°C° 0.3 mm 5 mps 753 mmHg 83%
    09:00 +3°C° 0.3 mm 6 mps 754 mmHg 81%
    10:00 +3°C° 0.3 mm 6 mps 754 mmHg 78%
    11:00 +5°C° 0.3 mm 5 mps 754 mmHg 76%
    12:00 +5°C° 0.3 mm 5 mps 755 mmHg 73%
    13:00 +5°C° 0.1 mm 5 mps 755 mmHg 71%
    14:00 +5°C° 0.1 mm 5 mps 755 mmHg 69%
    15:00 +5°C° 0.1 mm 4 mps 756 mmHg 67%
    16:00 +5°C° 0 mm 4 mps 756 mmHg 69%
    17:00 +5°C° 0 mm 3 mps 757 mmHg 72%
    18:00 +4°C° 0 mm 3 mps 757 mmHg 74%
    19:00 +4°C° 0 mm 3 mps 758 mmHg 75%
    20:00 +3°C° 0 mm 3 mps 758 mmHg 76%
    21:00 +3°C° 0 mm 3 mps 758 mmHg 78%
    22:00 +3°C° 0 mm 3 mps 759 mmHg 78%
    23:00 +3°C° 0 mm 3 mps 759 mmHg 79%

    14 December, Friday

    Time Temperature Precipitation Wind Pressure Humidity
    00:00 +3°C° 0 mm 3 mps 759 mmHg 79%
    01:00 +2°C° 0.1 mm 3 mps 760 mmHg 79%
    02:00 +2°C° 0.1 mm 3 mps 760 mmHg 80%
    03:00 +3°C° 0.1 mm 2 mps 760 mmHg 80%
    04:00 +3°C° 0 mm 2 mps 760 mmHg 81%
    05:00 +3°C° 0 mm 2 mps 760 mmHg 82%
    06:00 +3°C° 0 mm 2 mps 761 mmHg 83%
    07:00 +3°C° 0 mm 2 mps 761 mmHg 81%
    08:00 +3°C° 0 mm 2 mps 761 mmHg 80%
    09:00 +3°C° 0 mm 2 mps 761 mmHg 79%
    10:00 +4°C° 0 mm 2 mps 760 mmHg 73%
    11:00 +5°C° 0 mm 2 mps 760 mmHg 66%
    12:00 +6°C° 0 mm 2 mps 760 mmHg 60%
    13:00 +6°C° 0 mm 2 mps 760 mmHg 58%
    14:00 +6°C° 0 mm 2 mps 760 mmHg 56%
    15:00 +8°C° 0 mm 1 mps 760 mmHg 55%
    16:00 +7°C° 0 mm 1 mps 760 mmHg 58%
    17:00 +6°C° 0 mm 1 mps 760 mmHg 61%
    18:00 +5°C° 0 mm 0 mps 761 mmHg 65%
    19:00 +6°C° 0 mm 1 mps 761 mmHg 65%
    20:00 +5°C° 0 mm 1 mps 761 mmHg 66%
    21:00 +5°C° 0 mm 1 mps 761 mmHg 67%
    22:00 +5°C° 0 mm 1 mps 761 mmHg 69%
    23:00 +4°C° 0 mm 2 mps 761 mmHg 72%

    15 December, Saturday

    Time Temperature Precipitation Wind Pressure Humidity
    00:00 +4°C° 0 mm 2 mps 761 mmHg 74%
    01:00 +3°C° 0 mm 2 mps 761 mmHg 76%
    02:00 +3°C° 0 mm 2 mps 762 mmHg 79%
    03:00 +3°C° 0 mm 2 mps 762 mmHg 82%
    04:00 +2°C° 0 mm 2 mps 762 mmHg 83%
    05:00 +2°C° 0 mm 2 mps 762 mmHg 84%
    06:00 +2°C° 0 mm 2 mps 762 mmHg 85%
    07:00 +2°C° 0 mm 2 mps 762 mmHg 82%
    08:00 +3°C° 0 mm 2 mps 763 mmHg 79%
    09:00 +3°C° 0 mm 2 mps 763 mmHg 77%
    10:00 +4°C° 0 mm 2 mps 763 mmHg 70%
    11:00 +6°C° 0 mm 2 mps 763 mmHg 63%
    12:00 +7°C° 0 mm 3 mps 763 mmHg 56%
    13:00 +7°C° 0 mm 3 mps 763 mmHg 55%
    14:00 +7°C° 0 mm 3 mps 763 mmHg 53%
    15:00 +7°C° 0 mm 3 mps 763 mmHg 52%
    16:00 +6°C° 0 mm 2 mps 764 mmHg 56%
    17:00 +5°C° 0 mm 2 mps 764 mmHg 61%
    18:00 +4°C° 0 mm 2 mps 764 mmHg 65%
    19:00 +4°C° 0 mm 2 mps 765 mmHg 69%
    20:00 +3°C° 0 mm 2 mps 765 mmHg 72%
    21:00 +3°C° 0 mm 2 mps 765 mmHg 75%
    22:00 +2°C° 0 mm 2 mps 765 mmHg 78%
    23:00 +2°C° 0 mm 2 mps 765 mmHg 81%

    16 December, Sunday

    Time Temperature Precipitation Wind Pressure Humidity
    00:00 +1°C° 0 mm 2 mps 765 mmHg 85%
    01:00 +1°C° 0 mm 2 mps 766 mmHg 86%
    02:00 +1°C° 0 mm 2 mps 766 mmHg 88%
    03:00 -1°C° 0 mm 2 mps 766 mmHg 89%
    04:00 -1°C° 0 mm 2 mps 766 mmHg 89%
    05:00 -1°C° 0 mm 2 mps 766 mmHg 89%
    06:00 -2°C° 0 mm 2 mps 766 mmHg 89%
    07:00 -1°C° 0 mm 2 mps 766 mmHg 86%
    08:00 -1°C° 0 mm 2 mps 767 mmHg 84%
    09:00 -1°C° 0 mm 2 mps 767 mmHg 82%
    10:00 -1°C° 0 mm 3 mps 767 mmHg 78%
    11:00 0°C° 0 mm 3 mps 766 mmHg 74%
    12:00 +1°C° 0 mm 3 mps 766 mmHg 70%
    13:00 +1°C° 0 mm 3 mps 766 mmHg 70%
    14:00 +1°C° 0 mm 3 mps 766 mmHg 69%
    15:00 0°C° 0 mm 4 mps 766 mmHg 69%
    16:00 0°C° 0 mm 3 mps 766 mmHg 72%
    17:00 0°C° 0 mm 3 mps 766 mmHg 74%
    18:00 -1°C° 0 mm 3 mps 767 mmHg 77%
    19:00 -1°C° 0 mm 3 mps 767 mmHg 78%
    20:00 -2°C° 0 mm 4 mps 767 mmHg 78%
    21:00 -2°C° 0 mm 4 mps 767 mmHg 79%
    22:00 -3°C° 0 mm 4 mps 766 mmHg 80%
    23:00 -3°C° 0 mm 4 mps 766 mmHg 81%
    Show more